EW2175 Weather Reports


time (UTC)temp
C
wind
direction
speed
KPH
gust
KPH
rain 1hr
cm
rain 24hr
cm
rain mn
cm
humidity
%
barometer
mb
20260503221518 16 71 0.0 0.0 0.00 0.23 0.00 58 1012.8
20260503220027 16 70 0.0 0.0 0.00 0.23 0.00 55 1012.7
20260503214528 16 69 0.0 0.0 0.00 0.23 0.23 54 1012.7
20260503213028 16 69 0.0 0.0 0.00 0.23 0.23 52 1012.7
20260503211516 16 59 0.0 0.0 0.00 0.23 0.23 53 1012.6
20260503210017 16 71 0.0 0.0 0.00 0.23 0.23 53 1012.6
20260503204523 16 82 0.0 0.0 0.00 0.23 0.23 53 1012.5
20260503203014 17 160 0.0 0.0 0.00 0.23 0.23 52 1012.6
20260503201512 17 160 0.0 0.0 0.00 0.23 0.23 52 1012.8
20260503200012 17 160 0.0 0.0 0.00 0.23 0.23 50 1012.8
20260503194512 17 161 0.0 0.0 0.00 0.23 0.23 50 1012.8
20260503193010 17 157 0.0 0.0 0.00 0.23 0.23 49 1012.6
20260503191511 17 158 0.0 0.0 0.00 0.23 0.23 48 1012.6
20260503190016 17 160 0.0 0.0 0.00 0.23 0.23 48 1012.4
20260503184512 17 163 0.0 0.0 0.00 0.23 0.23 47 1012.6
20260503183009 17 157 0.0 0.0 0.00 0.23 0.23 46 1012.6
20260503181522 18 199 0.0 0.0 0.00 0.23 0.23 45 1012.7
20260503180015 18 166 0.0 6.4 0.00 0.23 0.23 44 1012.8
20260503174507 18 157 1.6 12.9 0.00 0.23 0.23 43 1012.9
20260503173007 18 190 1.6 14.5 0.00 0.23 0.23 43 1013.1
20260503171506 18 137 1.6 16.1 0.00 0.23 0.23 43 1013.0
20260503081511 21 204 0.0 14.5 0.00 0.23 0.23 46 1013.4
20260503071555 17 65 0.0 0.0 0.00 0.23 0.23 71 1013.6
20260503054544 13 235 0.0 0.0 0.00 0.23 0.23 90 1013.6
20260503053041 12 198 0.0 0.0 0.00 0.23 0.23 89 1013.7
20260503051537 12 198 0.0 0.0 0.00 0.23 0.23 89 1013.5
20260503050035 12 198 0.0 0.0 0.00 0.23 0.23 89 1013.4
20260503044543 12 194 0.0 0.0 0.00 0.23 0.23 89 1013.3
20260503043032 12 199 0.0 0.0 0.00 0.23 0.23 88 1013.2
20260503041535 13 199 0.0 0.0 0.00 0.23 0.23 87 1013.1
20260503040033 13 199 0.0 0.0 0.00 0.23 0.23 86 1013.2
20260503034528 13 180 0.0 0.0 0.13 0.23 0.23 85 1013.3
20260503033026 13 85 0.0 0.0 0.15 0.23 0.23 85 1013.1
20260503031523 13 73 0.0 3.2 0.23 0.23 0.23 82 1012.9
20260503030020 14 76 0.0 4.8 0.23 0.23 0.23 81 1013.1
20260503024519 15 71 0.0 0.0 0.10 0.10 0.10 78 1013.2
20260503023017 15 61 0.0 0.0 0.08 0.08 0.08 74 1013.5
20260503021516 15 61 0.0 0.0 0.00 0.00 0.00 67 1013.6
20260503020010 15 62 0.0 0.0 0.00 0.00 0.00 67 1013.5
20260503014509 15 64 0.0 0.0 0.00 0.00 0.00 67 1013.6
20260503013007 15 63 0.0 0.0 0.00 0.00 0.00 67 1013.7
20260503011515 15 63 0.0 0.0 0.00 0.00 0.00 66 1013.9
20260503010004 15 57 0.0 0.0 0.00 0.00 0.00 66 1013.9
20260503004502 15 68 0.0 0.0 0.00 0.00 0.00 66 1013.9
20260503003104 16 73 0.0 0.0 0.00 0.00 0.00 65 1013.9
20260503003005 16 73 0.0 0.0 0.00 0.00 0.00 65 1013.9
20260503001604 16 69 0.0 4.8 0.00 0.00 0.00 65 1014.1
20260503000055 16 85 0.0 0.0 0.00 0.00 0.00 65 1014.3
20260502234555 16 76 0.0 6.4 0.00 0.00 0.00 64 1014.3
20260502233051 16 87 0.0 0.0 0.00 0.00 0.00 64 1014.3
20260502231548 16 71 0.0 0.0 0.00 0.00 0.00 63 1014.3
20260502230046 16 76 0.0 0.0 0.00 0.00 0.00 63 1014.3
20260502224543 17 99 0.0 0.0 0.00 0.00 0.00 61 1014.4
20260502223040 17 100 0.0 0.0 0.00 0.00 0.00 60 1014.5